Location: Bouchavesnes-Bergen
(49.9859°N, 2.9203°E)
Time: 00:01:08
(UTC+00:00)

GENESIS II - Pass Details

Date: 09 March 2021
Orbit: 501 x 524 km, 64.5° (Epoch: 13 April)

Event Time Altitude Azimuth Distance (km) Brightness Sun altitude
Exits shadow 04:17:18 57° 246° (WSW) 623 4.2 -19.5°
Maximum altitude 04:18:00 75° 312° (NW) 548 4.1 -19.4°
Drops below altitude 10° 04:21:58 10° 38° (NE) 1,768 7.7 -18.8°
Sets 04:24:09 0° 40° (NE) 2,658 8.8 -18.5°
